Location: Chandler
(33.3060°N, 111.8410°W)
Time: 06:55:09
(UTC-07:00)

Amateur Radio Satellites - All Passes

Search period start: 23 June 2017 06:25
Search period end: 24 June 2017 06:25
Location: Chandler, 33.3060°N, 111.8410°W

Satellite Date Start Highest point End Downlink Frequencies (MHz)
Time Altitude Azimuth
AO-85 23 Jun 06:32:27 06:36:38 69° 244° (WSW) 06:41:07 145.980
BEESAT 3 23 Jun 06:34:32 06:38:29 61° 60° (ENE) 06:42:23 437.485
CUTE-I 23 Jun 06:45:33 06:50:57 80° 103° (ESE) 06:56:20 437.470
DOVE 4 23 Jun 06:47:41 06:52:05 34° 287° (WNW) 06:56:40 437.250
STRAND 1 23 Jun 06:54:46 06:59:48 60° 74° (ENE) 07:04:52 437.568
SEEDS 23 Jun 06:58:34 06:59:54 11° 93° (E) 07:01:13 437.485
NUDT-PHONESAT 23 Jun 07:01:21 07:04:57 51° 285° (WNW) 07:08:31 437.300
XW-2A 23 Jun 07:02:23 07:03:54 12° 94° (E) 07:05:25 145.665 - 145.685
RS-15 23 Jun 07:05:47 07:17:50 79° 245° (WSW) 07:29:11 29.354- 29.394
XW-2F 23 Jun 07:08:27 07:11:49 32° 286° (WNW) 07:15:08 145.980 - 146.000
CUTE 1.7 + AOD 2 23 Jun 07:08:45 07:12:18 26° 97° (E) 07:15:50 437.475
NO-84 23 Jun 07:10:30 07:14:04 26° 237° (WSW) 07:17:28 435.350 FM
XW-2D 23 Jun 07:10:35 07:13:49 28° 287° (WNW) 07:17:02 145.860 - 145.880
LilacSat-2 23 Jun 07:15:37 07:18:40 24° 288° (WNW) 07:21:44 437.200
XW-2B 23 Jun 07:19:43 07:22:41 22° 288° (WNW) 07:25:39 145.730 - 145.750
HO-68 23 Jun 07:22:32 07:29:23 46° 100° (E) 07:36:10 435.675
BEESAT 2 23 Jun 07:27:07 07:31:11 83° 59° (ENE) 07:35:11 435.950
UWE-3 23 Jun 07:32:12 07:34:42 14° 92° (E) 07:37:08 435.000/436.395/437.385
Tancredo 1 23 Jun 07:34:56 07:37:31 26° 130° (SE) 07:40:08 437.200
XW-2C 23 Jun 07:35:51 07:37:56 14° 291° (WNW) 07:40:00 145.795 - 145.815
O/OREOS (USA 219) 23 Jun 07:40:16 07:44:33 44° 67° (ENE) 07:48:49 437.305
AAUSAT CUBESAT 2 23 Jun 07:55:50 07:59:17 26° 97° (E) 08:02:43 437.432
CUBEBUG 2 23 Jun 08:27:22 08:32:04 70° 284° (WNW) 08:36:38 437.445
CUTE-I 23 Jun 08:28:49 08:30:14 11° 298° (WNW) 08:31:40 437.470
SEEDS 23 Jun 08:31:48 08:35:45 43° 286° (WNW) 08:39:41 437.485
XW-2A 23 Jun 08:33:48 08:36:37 24° 287° (WNW) 08:39:25 145.665 - 145.685
AO-73 23 Jun 08:34:33 08:38:40 36° 98° (E) 08:42:39 145.935
STRAND 1 23 Jun 08:37:13 08:39:17 12° 268° (W) 08:41:22 437.568
CUTE 1.7 + AOD 2 23 Jun 08:44:55 08:47:56 19° 290° (WNW) 08:50:56 437.475
M-CUBED/EXP-1 PRIME 23 Jun 08:45:29 08:48:45 47° 71° (ENE) 08:51:56 437.505
PRISM 23 Jun 08:47:26 08:50:06 17° 69° (ENE) 08:52:46 437.425
UNISAT 6 23 Jun 08:48:12 08:51:24 19° 68° (ENE) 08:54:39 437.425
ISS 23 Jun 08:57:56 09:01:10 62° 318° (NW) 09:04:25 437.550
YUBILEINY 23 Jun 09:02:06 09:10:49 59° 80° (E) 09:19:24 435.215
Oscar 11 23 Jun 09:04:43 09:09:00 65° 101° (ESE) 09:13:15 .
UWE-3 23 Jun 09:06:58 09:11:18 41° 286° (WNW) 09:15:29 435.000/436.395/437.385
ZACube-1 23 Jun 09:07:43 09:12:11 76° 283° (WNW) 09:16:31 437.345
FO-29 23 Jun 09:10:22 09:15:55 51° 71° (ENE) 09:22:14 435.910
Tancredo 1 23 Jun 09:10:47 09:13:06 20° 325° (NW) 09:15:26 437.200
HO-68 23 Jun 09:10:48 09:16:45 29° 296° (WNW) 09:22:40 435.675
O/OREOS (USA 219) 23 Jun 09:21:35 09:23:29 13° 261° (W) 09:25:23 437.305
RS-15 23 Jun 09:22:49 09:28:08 14° 263° (W) 09:33:21 29.354- 29.394
AAUSAT CUBESAT 2 23 Jun 09:31:36 09:34:31 19° 290° (WNW) 09:37:26 437.432
TIGRISAT 23 Jun 09:41:50 09:46:20 72° 76° (ENE) 09:50:58 435.000
DELFI C3 23 Jun 09:45:54 09:49:42 46° 100° (E) 09:53:29 145.870
EO-88 23 Jun 09:49:19 09:52:35 31° 98° (E) 09:55:49 145.990 - 145.960
AO-73 23 Jun 10:11:51 10:14:31 16° 292° (WNW) 10:17:10 145.935
QB50P2 23 Jun 10:20:22 10:21:32 11° 66° (ENE) 10:22:41 145.880/145.840
PRISM 23 Jun 10:21:37 10:25:08 28° 262° (W) 10:28:39 437.425
UNISAT 6 23 Jun 10:23:42 10:27:47 33° 262° (W) 10:32:00 437.425
AIST 2D 23 Jun 10:32:36 10:35:38 27° 73° (ENE) 10:38:41 435.315
EO-79 23 Jun 10:43:44 10:46:47 20° 69° (ENE) 10:49:50 145.935-145.965
FO-29 23 Jun 10:57:26 11:01:26 19° 269° (W) 11:05:45 435.910
YUBILEINY 23 Jun 11:00:11 11:06:53 25° 277° (W) 11:13:33 435.215
DUCHIFAT 1 23 Jun 11:00:23 11:03:48 24° 71° (ENE) 11:07:13 145.980
ESTCUBE 1 23 Jun 11:01:02 11:04:08 18° 95° (E) 11:07:14 437.505/2401.250
PCSat 23 Jun 11:04:57 11:08:40 19° 105° (ESE) 11:12:23 145.827
NANOSAT C BR1 23 Jun 11:07:04 11:10:51 33° 73° (ENE) 11:14:40 145.865
DELFI C3 23 Jun 11:23:39 11:23:59 10° 293° (WNW) 11:24:20 145.870
EO-88 23 Jun 11:24:22 11:25:55 12° 291° (WNW) 11:27:27 145.990 - 145.960
POLYITAN 1 23 Jun 11:41:51 11:46:06 79° 259° (W) 11:50:23 437.675
Oscar 19 23 Jun 11:49:58 11:51:29 11° 63° (ENE) 11:53:00 437.125/150
QB50P2 23 Jun 11:52:40 11:56:48 51° 260° (W) 12:00:58 145.880/145.840
LO-87 23 Jun 11:53:31 11:56:59 42° 285° (WNW) 12:00:25 145.935 - 145.965
SPROUT 23 Jun 11:53:47 11:56:37 17° 95° (E) 11:59:26 437.525
AIST 2D 23 Jun 12:07:12 12:08:51 13° 266° (W) 12:10:30 435.315
EO-79 23 Jun 12:18:42 12:22:19 27° 263° (W) 12:25:57 145.935-145.965
BUGSAT 1 23 Jun 12:19:38 12:23:40 61° 75° (ENE) 12:27:46 437.445
Gurwin Techsat 1B 23 Jun 12:22:07 12:25:08 15° 65° (ENE) 12:28:08 435.225
DUCHIFAT 1 23 Jun 12:36:06 12:39:21 22° 264° (W) 12:42:37 145.980
ESTCUBE 1 23 Jun 12:36:59 12:40:57 32° 288° (WNW) 12:44:54 437.505/2401.250
NANOSAT C BR1 23 Jun 12:44:01 12:46:36 16° 266° (W) 12:49:11 145.865
PCSat 23 Jun 12:46:27 12:51:38 46° 300° (WNW) 12:56:51 145.827
VELOX 1 23 Jun 12:48:45 12:53:11 73° 103° (ESE) 12:57:36 145.980
DX 1 23 Jun 13:16:22 13:20:33 44° 100° (E) 13:24:43 434.975-435.025
Oscar 19 23 Jun 13:24:58 13:30:07 74° 258° (WSW) 13:35:17 437.125/150
JUGNU 23 Jun 13:27:04 13:30:43 17° 168° (SSE) 13:34:23 437.505
SO-50 23 Jun 13:28:28 13:31:50 20° 110° (ESE) 13:35:10 436.795
AO-7 23 Jun 13:28:31 13:33:46 19° 56° (NE) 13:39:01 .
SPROUT 23 Jun 13:28:42 13:32:31 32° 288° (WNW) 13:36:20 437.525
50 SAT 23 Jun 13:34:01 13:37:20 53° 284° (WNW) 13:40:39 437.505
UKube-1 23 Jun 13:38:26 13:42:40 53° 101° (E) 13:46:52 .
Gurwin Techsat 1B 23 Jun 13:59:21 14:04:32 56° 259° (W) 14:09:46 435.225
ITAMSAT 1 23 Jun 13:59:31 14:02:39 16° 65° (ENE) 14:05:47 435.822/435.867
DX 1 23 Jun 14:54:11 14:56:18 13° 293° (WNW) 14:58:25 434.975-435.025
SO-50 23 Jun 15:07:54 15:12:02 33° 304° (NW) 15:16:10 436.795
SRMSAT 23 Jun 15:09:21 15:11:07 11° 163° (SSE) 15:12:53 437.500
JUGNU 23 Jun 15:14:37 15:19:06 22° 178° (S) 15:23:35 437.505
UKube-1 23 Jun 15:16:57 15:18:10 11° 294° (WNW) 15:19:23 .
AO-7 23 Jun 15:17:09 15:25:28 85° 253° (WSW) 15:33:51 .
ISS 23 Jun 15:29:27 15:32:03 21° 35° (NE) 15:34:39 437.550
ITUPSAT 1 23 Jun 15:35:52 15:40:41 89° 103° (ESE) 15:45:27 437.325
ITAMSAT 1 23 Jun 15:36:36 15:41:38 51° 260° (W) 15:46:42 435.822/435.867
Tancredo 1 23 Jun 15:37:24 15:40:23 50° 41° (NE) 15:43:20 437.200
MOZHAYETS 4 23 Jun 15:38:38 15:43:11 62° 101° (E) 15:47:41
BEESAT 23 Jun 15:47:30 15:52:15 66° 285° (WNW) 15:56:57 436.000
CUBESAT XI-V 23 Jun 16:14:01 16:17:45 24° 96° (E) 16:21:29 437.345
DOVE 4 23 Jun 16:14:59 16:15:56 11° 66° (ENE) 16:16:54 437.250
SRMSAT 23 Jun 16:55:27 16:59:35 19° 173° (S) 17:03:44 437.500
KAITUO 1B 23 Jun 16:59:46 17:00:55 11° 68° (ENE) 17:02:04 145.475/437.950
JUGNU 23 Jun 17:03:24 17:07:30 19° 189° (S) 17:11:35 437.505
ISS 23 Jun 17:05:37 17:08:33 30° 230° (SW) 17:11:29 437.550
AO-7 23 Jun 17:15:39 17:19:06 13° 268° (W) 17:22:35 .
MOZHAYETS 4 23 Jun 17:18:49 17:19:45 11° 295° (WNW) 17:20:40
KKS-1 23 Jun 17:28:39 17:33:07 67° 285° (WNW) 17:37:33 437.445
NUDT-PHONESAT 23 Jun 17:36:15 17:39:39 33° 74° (ENE) 17:43:03 437.300
XW-2F 23 Jun 17:44:22 17:48:08 57° 76° (ENE) 17:51:53 145.980 - 146.000
XW-2D 23 Jun 17:46:42 17:50:30 69° 78° (ENE) 17:54:21 145.860 - 145.880
HO-68 23 Jun 17:47:56 17:53:15 23° 62° (ENE) 17:58:35 435.675
DOVE 4 23 Jun 17:49:11 17:53:09 47° 261° (W) 17:57:12 437.250
CUBESAT XI-V 23 Jun 17:51:16 17:55:01 25° 289° (WNW) 17:58:45 437.345
LilacSat-2 23 Jun 17:52:10 17:56:02 85° 78° (ENE) 17:59:55 437.200
XW-2B 23 Jun 17:55:36 17:59:26 88° 83° (E) 18:03:18 145.730 - 145.750
CUTE 1.7 + AOD 2 23 Jun 17:59:07 18:00:44 12° 67° (ENE) 18:02:21 437.475
CUTE-I 23 Jun 18:03:06 18:08:25 86° 76° (ENE) 18:13:47 437.470
STARS 23 Jun 18:04:41 18:09:05 64° 285° (WNW) 18:13:27 437.465
XW-2C 23 Jun 18:11:04 18:14:50 54° 260° (W) 18:18:36 145.795 - 145.815
KAITUO 1B 23 Jun 18:30:58 18:34:31 38° 261° (W) 18:38:04 145.475/437.950
SRMSAT 23 Jun 18:43:44 18:48:08 22° 183° (S) 18:52:31 437.500
AAUSAT CUBESAT 2 23 Jun 18:44:26 18:45:11 10° 67° (ENE) 18:45:56 437.432
JUGNU 23 Jun 18:54:54 18:55:49 10° 198° (SSW) 18:56:44 437.505
XW-2A 23 Jun 19:00:09 19:03:26 45° 75° (ENE) 19:06:44 145.665 - 145.685
STRAND 1 23 Jun 19:09:55 19:14:22 29° 97° (E) 19:18:46 437.568
NUDT-PHONESAT 23 Jun 19:12:08 19:13:36 12° 267° (W) 19:15:04 437.300
RS-15 23 Jun 19:13:41 19:22:23 24° 101° (E) 19:31:12 29.354- 29.394
SEEDS 23 Jun 19:18:34 19:22:46 70° 76° (ENE) 19:26:56 437.485
CUBEBUG 2 23 Jun 19:20:37 19:25:01 57° 75° (ENE) 19:29:35 437.445
AO-73 23 Jun 19:26:20 19:29:27 19° 69° (ENE) 19:32:36 145.935
CUTE 1.7 + AOD 2 23 Jun 19:32:01 19:36:06 46° 261° (W) 19:40:13 437.475
HO-68 23 Jun 19:33:19 19:40:23 60° 258° (WSW) 19:47:31 435.675
Oscar 11 23 Jun 19:55:27 19:59:11 29° 72° (ENE) 20:02:57 .
ZACube-1 23 Jun 19:58:38 20:02:58 48° 74° (ENE) 20:07:23 437.345
UWE-3 23 Jun 19:58:41 20:03:13 89° 269° (W) 20:07:52 435.000/436.395/437.385
YUBILEINY 23 Jun 20:08:58 20:10:40 11° 77° (ENE) 20:12:22 435.215
AAUSAT CUBESAT 2 23 Jun 20:16:09 20:20:09 50° 260° (W) 20:24:10 437.432
BEESAT 3 23 Jun 20:20:29 20:23:50 27° 112° (ESE) 20:27:15 437.485
DELFI C3 23 Jun 20:28:25 20:30:42 15° 69° (ENE) 20:32:59 145.870
FO-29 23 Jun 20:28:29 20:29:39 10° 87° (E) 20:30:47 435.910
SRMSAT 23 Jun 20:33:16 20:36:38 16° 193° (SSW) 20:40:00 437.500
AO-85 23 Jun 20:43:04 20:47:14 74° 299° (WNW) 20:51:12 145.980
NO-84 23 Jun 20:46:35 20:49:23 20° 121° (ESE) 20:52:22 435.350 FM
STRAND 1 23 Jun 20:49:05 20:53:23 27° 291° (WNW) 20:57:39 437.568
CUBEBUG 2 23 Jun 21:01:05 21:01:58 10° 269° (W) 21:02:51 437.445
AO-73 23 Jun 21:01:18 21:05:22 34° 263° (W) 21:09:31 145.935
BEESAT 2 23 Jun 21:14:21 21:18:00 38° 113° (ESE) 21:21:44 435.950
RS-15 23 Jun 21:21:21 21:33:26 81° 299° (WNW) 21:45:54 29.354- 29.394
Oscar 11 23 Jun 21:32:12 21:35:17 19° 265° (W) 21:38:24 .
ZACube-1 23 Jun 21:37:34 21:39:27 12° 268° (W) 21:41:22 437.345
PCSat 23 Jun 21:38:12 21:43:34 57° 62° (ENE) 21:48:52 145.827
TIGRISAT 23 Jun 21:38:22 21:41:54 21° 95° (E) 21:45:22 435.000
O/OREOS (USA 219) 23 Jun 21:47:58 21:52:30 68° 290° (WNW) 21:57:02 437.305
EO-88 23 Jun 21:55:46 21:59:21 52° 260° (W) 22:02:57 145.990 - 145.960
YUBILEINY 23 Jun 21:57:07 22:05:52 77° 93° (E) 22:14:41 435.215
BEESAT 3 23 Jun 21:58:25 22:01:23 20° 307° (NW) 22:04:24 437.485
ESTCUBE 1 23 Jun 21:58:37 21:59:44 11° 65° (ENE) 22:00:51 437.505/2401.250
M-CUBED/EXP-1 PRIME 23 Jun 22:00:39 22:04:24 78° 107° (ESE) 22:08:28 437.505
DELFI C3 23 Jun 22:01:44 22:05:11 30° 263° (W) 22:08:39 145.870
PRISM 23 Jun 22:06:13 22:10:11 48° 100° (E) 22:14:10 437.425
FO-29 23 Jun 22:07:42 22:15:35 73° 102° (ESE) 22:23:16 435.910
UNISAT 6 23 Jun 22:18:59 22:23:38 71° 101° (E) 22:28:10 437.425
NO-84 23 Jun 22:23:05 22:26:42 36° 318° (NW) 22:30:34 435.350 FM
LO-87 23 Jun 22:25:20 22:28:32 33° 74° (ENE) 22:31:47 145.935 - 145.965
BEESAT 2 23 Jun 22:53:28 22:55:53 15° 309° (NW) 22:58:20 435.950
TIGRISAT 23 Jun 23:14:31 23:18:32 29° 289° (WNW) 23:22:28 435.000
PCSat 23 Jun 23:23:26 23:26:23 15° 256° (WSW) 23:29:20 145.827
POLYITAN 1 23 Jun 23:31:25 23:34:48 22° 96° (E) 23:38:09 437.675
ESTCUBE 1 23 Jun 23:31:32 23:35:58 59° 259° (W) 23:40:25 437.505/2401.250
AIST 2D 23 Jun 23:34:09 23:37:37 60° 100° (E) 23:41:03 435.315
RS-15 23 Jun 23:38:50 23:48:10 24° 323° (NW) 23:57:37 29.354- 29.394
QB50P2 23 Jun 23:41:42 23:45:35 33° 98° (E) 23:49:26 145.880/145.840
VELOX 1 23 Jun 23:41:51 23:45:52 36° 72° (ENE) 23:49:53 145.980
SO-50 23 Jun 23:42:24 23:46:55 66° 60° (ENE) 23:51:27 436.795
PRISM 23 Jun 23:43:57 23:44:59 11° 294° (WNW) 23:46:02 437.425
FO-29 23 Jun 23:54:13 23:59:45 22° 297° (WNW) 00:05:18 435.910
YUBILEINY 23 Jun 23:57:45 00:03:30 19° 291° (WNW) 00:09:19 435.215
LO-87 24 Jun 00:01:53 00:02:04 10° 267° (W) 00:02:15 145.935 - 145.965
50 SAT 24 Jun 00:02:07 00:04:49 23° 72° (ENE) 00:07:32 437.505
EO-79 24 Jun 00:06:37 00:10:53 63° 102° (ESE) 00:15:04 145.935-145.965
BUGSAT 1 24 Jun 00:07:18 00:09:07 12° 93° (E) 00:10:56 437.445
DX 1 24 Jun 00:08:17 00:11:40 23° 70° (ENE) 00:15:03 434.975-435.025
SPROUT 24 Jun 00:16:59 00:21:13 74° 259° (W) 00:25:30 437.525
DUCHIFAT 1 24 Jun 00:22:54 00:27:10 80° 102° (ESE) 00:31:24 145.980
UKube-1 24 Jun 00:29:06 00:32:38 26° 71° (ENE) 00:36:12 .
NANOSAT C BR1 24 Jun 00:30:24 00:34:39 73° 284° (WNW) 00:38:52 145.865
POLYITAN 1 24 Jun 01:07:01 01:10:27 24° 289° (WNW) 01:13:51 437.675
QB50P2 24 Jun 01:18:21 01:21:04 17° 291° (WNW) 01:23:45 145.880/145.840
VELOX 1 24 Jun 01:19:51 01:22:24 15° 266° (W) 01:24:56 145.980
50 SAT 24 Jun 01:35:53 01:37:34 13° 265° (W) 01:39:16 437.505
BUGSAT 1 24 Jun 01:40:36 01:44:38 42° 286° (WNW) 01:48:36 437.445
Oscar 19 24 Jun 01:40:47 01:45:48 55° 100° (E) 01:50:48 437.125/150
DX 1 24 Jun 01:44:11 01:47:42 24° 263° (W) 01:51:13 434.975-435.025
RS-15 24 Jun 02:04:15 02:07:42 11° 360° (N) 02:11:07 29.354- 29.394
UKube-1 24 Jun 02:05:20 02:08:35 21° 264° (W) 02:11:50 .
Gurwin Techsat 1B 24 Jun 02:19:37 02:24:58 82° 103° (ESE) 02:30:17 435.225
MOZHAYETS 4 24 Jun 02:36:15 02:40:29 36° 72° (ENE) 02:44:43
ITUPSAT 1 24 Jun 02:38:08 02:42:53 64° 75° (ENE) 02:47:39 437.325
BEESAT 24 Jun 02:49:19 02:54:05 87° 74° (ENE) 02:58:54 436.000
CUBESAT XI-V 24 Jun 03:14:09 03:16:56 16° 68° (ENE) 03:19:42 437.345
Oscar 19 24 Jun 03:21:50 03:24:36 15° 295° (WNW) 03:27:21 437.125/150
AO-7 24 Jun 03:23:49 03:31:40 43° 101° (E) 03:39:27 .
ITAMSAT 1 24 Jun 03:53:24 03:58:41 80° 104° (ESE) 04:03:53 435.822/435.867
Gurwin Techsat 1B 24 Jun 04:03:10 04:04:09 10° 298° (WNW) 04:05:08 435.225
MOZHAYETS 4 24 Jun 04:14:36 04:17:41 18° 266° (W) 04:20:47
RS-15 24 Jun 04:17:55 04:27:11 24° 36° (NE) 04:36:06 29.354- 29.394
ITUPSAT 1 24 Jun 04:20:36 04:21:03 10° 268° (W) 04:21:29 437.325
KKS-1 24 Jun 04:22:12 04:26:33 65° 75° (ENE) 04:30:57 437.445
CUBESAT XI-V 24 Jun 04:49:31 04:53:55 41° 261° (W) 04:58:18 437.345
STARS 24 Jun 04:56:43 05:01:01 64° 76° (ENE) 05:05:22 437.465
NO-84 24 Jun 05:00:15 05:03:59 27° 39° (NE) 05:07:36 435.350 FM
AO-7 24 Jun 05:16:44 05:24:13 38° 296° (WNW) 05:31:41 .
AO-85 24 Jun 05:17:53 05:21:26 26° 56° (NE) 05:25:10 145.980
LilacSat-2 24 Jun 05:31:30 05:32:56 12° 93° (E) 05:34:22 437.200
XW-2B 24 Jun 05:34:13 05:35:40 12° 93° (E) 05:37:06 145.730 - 145.750
ITAMSAT 1 24 Jun 05:36:18 05:37:23 11° 298° (WNW) 05:38:28 435.822/435.867
XW-2C 24 Jun 05:48:26 05:51:11 19° 95° (E) 05:53:55 145.795 - 145.815
DOVE 4 24 Jun 05:50:42 05:55:35 60° 101° (E) 06:00:42 437.250
KAITUO 1B 24 Jun 06:06:25 06:09:29 24° 97° (E) 06:12:32 145.475/437.950
